www.pogodaiklimat.ru

Погода и климат >> Архив погоды >> Россия >> Дагестан >> Дербент


АРХИВ ПОГОДЫ в Дербенте

Время (UTC), дата Ветер
(напр.,м/с)
 
Видим.   Явления Облачность Т
(С)
Тd
(С)
f
(%)
Тe
(С)
Тes
(С)
Комфортность P
(гПа)
Po
(гПа)
Тmin
(С)
Tmax
(С)
R
(мм)
R24
(мм)
S
(см)
18 19.05 СЗ 3 10 км 9/9 300 м
[Cb cap]
+19.0 +15.4 80 +21 +21 комфорт 1011.1 1013.3
21 19.05 СЗ 4
{10}
10 км 6/6 600 м
[Sc]
+20.2 +13.8 67 +22 +22 комфорт 1011.6 1013.7
00 20.05 СЗ 3 10 км {ливн. осадки} 9/9 300 м
[Cb cap]
+20.8 +10.6 52 +23 +23 комфорт 1011.5 1013.6
03 20.05 СЗ 4 20 км 10/10 300 м
[Cb cap]
+19.8 +12.3 62 +21 +21 комфорт 1011.6 1013.7 +18.5 0.0
06 20.05 С 2 20 км 8/8 600 м
[Sc]
+22.3 +15.1 64 +26 +28 жарко 1014.2 1016.3
09 20.05 С 2 20 км 8/0
[Ac trans Ci]
+24.0 +12.4 48 +26 +40 жарко 1014.5 1016.6
12 20.05 СЗ 3 20 км гроза без осадков 9/9 300 м
[Cb cap]
+21.2 +12.9 59 +23 +24 комфорт 1015.7 1017.8
15 20.05 СЗ 1 20 км в посл. час ливневой дождь {гроза} 9/8 300 м
[Cb cap Ac cuf Ci sp]
+21.9 +7.9 41 +23 +23 комфорт 1016.2 1018.3 +25.9 1
18 20.05 С 2 10 км {гроза, ливн. осадки} 8/8 600 м
[Sc]
+18.8 +10.5 59 +20 +20 тепло 1016.7 1018.9
21 20.05 ЮВ 2 10 км 10/10 600 м
[Sc]
+18.5 +14.1 76 +20 +20 тепло 1017.9 1020.1
00 21.05 В 1 10 км 10/10 600 м
[Sc]
+18.3 +12.1 67 +20 +20 тепло 1018.5 1020.7
03 21.05 ЮВ 1 20 км 9/9 600 м
[Sc]
+18.2 +13.4 74 +20 +20 тепло 1019.9 1022.0 +18.1
06 21.05 ЮВ 2 20 км 10/10 600 м
[Sc]
+19.5 +12.0 62 +21 +21 комфорт 1020.7 1022.9
09 21.05 В 4 20 км 6/3 600 м
[Sc Ac trans]
+21.6 +8.5 43 +23 +30 комфорт 1021.0 1023.1
12 21.05 В 3 20 км 3/0
[Ac trans]
+21.8 +6.8 38 +23 +30 комфорт 1021.4 1023.5
15 21.05 ЮВ 2 20 км 8/8 600 м
[Sc]
+18.3 +10.0 58 +19 +19 по сезону 1021.6 1023.7 +22.5
18 21.05 Ю 2 10 км ясно +16.7 +7.2 53 +17 +17 по сезону 1021.6 1023.8
21 21.05 Ю 1 10 км ясно +14.9 +7.5 61 +16 +16 по сезону 1021.4 1023.5
00 22.05 Ю 1 10 км ясно +14.3 +8.4 68 +15 +15 по сезону 1020.6 1022.8
03 22.05 ЮВ 2 20 км ясно +16.5 +8.6 60 +17 +19 по сезону 1020.0 1022.2 +13.9
06 22.05 ЮВ 5 20 км ясно +19.7 +9.7 52 +21 +27 комфорт 1018.4 1020.5
09 22.05 В 7-10
{10}
20 км 8/0
[Ci fib]
+19.5 +13.0 66 +20 +25 по сезону 1016.2 1018.3
12 22.05 В 5
{11}
20 км 8/0
[Ac trans Ci fib]
+19.9 +14.0 69 +22 +25 комфорт 1015.0 1017.1
15 22.05 ЮВ 3 20 км 9/4 600 м
[Sc Ac trans Ci fib]
+18.6 +11.7 64 +19 +20 по сезону 1014.0 1016.1 +21.1
18 22.05 СЗ 2 10 км 8/8 600 м
[Sc]
+18.0 +12.1 68 +19 +19 тепло 1014.4 1016.5
21 22.05 СЗ 4
{10}
10 км 8/8 600 м
[Sc]
+16.6 +12.6 77 +16 +16 по сезону 1014.5 1016.6
00 23.05 СЗ 2 10 км ясно +15.7 +11.9 78 +16 +16 по сезону 1013.7 1015.8
03 23.05 СЗ 1 20 км ясно +17.3 +12.8 75 +18 +20 по сезону 1013.3 1015.4 +15.2
06 23.05 С 2 20 км 9/9 600 м
[Sc]
+20.2 +13.8 67 +23 +24 комфорт 1012.8 1014.9
09 23.05 В 2 20 км ясно +21.0 +14.1 65 +25 +44 комфорт 1012.8 1014.9
12 23.05 В 1 20 км 10/10 600 м
[Sc]
+19.6 +10.7 56 +22 +22 комфорт 1012.2 1014.3
15 23.05 Ю 3 20 км 8/6 600 м
[Sc Ac trans]
+21.4 +13.0 59 +24 +24 комфорт 1010.8 1012.9 +23.2
18 23.05 Ю 1 10 км 8/0
[Ac trans]
+19.9 +12.3 62 +23 +23 комфорт 1011.9 1014.0
21 23.05 В 1 10 км ясно +18.1 +12.7 71 +19 +19 тепло 1012.1 1014.2
00 24.05 ЮЗ 1 10 км 8/0
[Ac trans]
+18.4 +14.0 76 +20 +20 тепло 1012.2 1014.4
03 24.05 Ю 1 20 км ясно +20.8 +11.5 55 +24 +26 комфорт 1012.9 1015.0 +16.0
06 24.05 ЮВ 3 20 км ясно +23.3 +14.2 57 +27 +38 душно 1012.6 1014.7
09 24.05 ЮВ 3 20 км ясно +22.6 +14.5 60 +26 +42 жарко 1012.9 1015.0
12 24.05 ЮВ 3 20 км 6/6 600 м
[Sc]
+21.8 +12.9 57 +24 +28 комфорт 1012.9 1015.0
15 24.05 ЮВ 3 20 км 8/0
[Ac trans Ci sp]
+20.8 +12.2 58 +23 +24 комфорт 1013.2 1015.3 +24.3
18 24.05 Ю 2 10 км 9/0
[Ac trans]
+19.1 +13.0 68 +21 +21 комфорт 1013.2 1015.3
21 24.05 ЮВ 1 10 км ясно +18.0 +14.1 78 +19 +19 тепло 1013.4 1015.5
00 25.05 ЮВ 2 10 км ясно +17.4 +12.5 73 +18 +18 тепло 1012.2 1014.4
03 25.05 ЮВ 2 20 км 4/0
[Ci fib]
+17.9 +12.3 70 +18 +20 по сезону 1011.6 1013.7 +15.5
06 25.05 ЮВ 3 20 км ясно +21.4 +16.4 73 +25 +36 комфорт 1011.2 1013.3
09 25.05 ЮВ 5 20 км 4/0
[Ac trans]
+21.7 +16.8 74 +26 +34 душно 1010.0 1012.1
12 25.05 Ю 3
{10}
20 км 3/0
[Ac trans]
+21.4 +15.4 69 +25 +32 комфорт 1008.8 1010.8
15 25.05 ЮВ 3 20 км 9/6 600 м
[Sc Ac trans]
+19.3 +14.8 75 +21 +21 комфорт 1006.7 1008.8 +22.2
18 25.05 СЗ 5 10 км 10/10 600 м
[Sc]
+18.7 +14.5 77 +19 +19 по сезону 1007.3 1009.4
21 25.05 СЗ 3
{14}
10 км 10/10 600 м
[Sc]
+20.0 +14.7 72 +23 +23 комфорт 1008.7 1010.8
00 26.05 С 3 10 км 4/0
[Ac trans]
+18.1 +14.3 78 +18 +18 тепло 1008.2 1010.4
03 26.05 СЗ 4
{11}
20 км ясно +20.0 +15.0 73 +22 +24 комфорт 1010.9 1013.1 +18.0
06 26.05 С 5 20 км 8/6 600 м
[Sc Ac trans]
+23.1 +13.9 56 +27 +28 душно 1012.1 1014.2
09 26.05 СЗ 4
{11}
20 км 8/5 600 м
[Cu med, cong Ac cuf Ci sp]
+25.7 +14.5 50 +28 +33 жарко 1012.3 1014.4
12 26.05 С 3 20 км 4/0
[Ci sp]
+26.5 +15.4 51 +30 +38 душно 1011.7 1013.7
15 26.05 СЗ 3 20 км 9/6 600 м
[Sc Ac cuf]
+23.2 +13.6 55 +27 +27 душно 1011.2 1013.3 +27.0

 

Местоположение метеостанции Дербент (Дагестан, Россия): широта 42.07 долгота 48.30 высота над уровнем моря -17 м.

В архиве по умолчанию представлена погода в Дербенте за последнюю неделю. Архивные данные за месяц целиком и за предыдущие месяцы, начиная с января 2011 года, Вы можете получить, выбрав интересующий диапазон дат из раскрывающегося списка и нажав кнопку "Ввод!".


*Определитесь, кто Вы:
робот инопланетянин человек

Внимание! Время в таблицах - всемирное. Для получения местного времени необходимо прибавить поправку, которая равна 3 ч.

Смотрите также архив погоды в соседних городах и на ближайших метеорологических станциях:

Погода в Касумкенте (Дагестан, Россия) (46 км)
Погода в Изберге (Дагестан, Россия) (60 км)
Погода в Сергокале (Дагестан, Россия) (67 км)
Погода в Губе (Азербайджан) (80 км)
Погода в Ахты (Дагестан, Россия) (81 км)
Погода в Кумухе (Дагестан, Россия) (98 км)
Погода в Куппе (Дагестан, Россия) (107 км)
Погода в Гунибе (Дагестан, Россия) (116 км)
Погода в Махачкале (Дагестан, Россия) (125 км)
Погода в Габале (Азербайджан) (126 км)

Пояснения к столбцам:

Ветер - указаны скорость ветра в м/с - средняя за 10 мин, порывы в срок и между сроками (в фигурных скобках) и направление, откуда дует ветер: С - северный, СВ - северо-восточный, В - восточный, ЮВ - юго-восточный, Ю - южный, ЮЗ - юго-западный, З - западный, СЗ - северо-западный.
Видимость - горизонтальная дальность видимости в метрах или километрах. При видимости от 1 до 10 км при отсутствии осадков обычно наблюдается дымка, при ухудшении видимости до 1 км и менее - туман. В сухую погоду видимость может ухудшаться дымом, пылью или мглою.
Явления - указаны атмосферные явления, наблюдавшиеся в срок или в последний час перед сроком; фигурными скобками обозначены явления, наблюдавшиеся между сроками (за 1-3 часа до срока); квадратными скобками обозначены град или гололедные отложения с указанием их диаметра в мм.
Облачность - указаны через наклонную черту общая и нижняя облачность в баллах и высота нижней границы облаков в метрах; квадратными скобками обозначены формы облаков: Ci - перистые, Cs - перисто-слоистые, Cc - перисто-кучевые, Ac - высококучевые, As - высокослоистые, Sc - слоисто-кучевые, Ns - слоисто-дождевые, Cu - кучевые, Cb - кучево-дождевые. Подробнее классификацию облаков см. в Атласе облаков (PDF).
T - Температура воздуха - температура, измеренная на высоте 2 м над землей.
Td - Температура точки росы - температура, при понижении до которой содержащийся в воздухе водяной пар достигнет насыщения.
f - Относительная влажность воздуха - влажноcть воздуха, измеренная на высоте 2 м над землей.
Te - Эффективная температура - температура, которую ощущает одетый по сезону человек в тени. Характеристика душности погоды. При расчете учитывается влияние влажности воздуха и скорости ветра на теплоощущения человека.
Tes - Эффективная температура на солнце - температура, которую ощущает человек, с поправкой на солнечный нагрев. Характеристика знойности погоды. Зависит от высоты солнца над горизонтом, облачности и скорости ветра. Ночью, в пасмурную погоду, а также при ветре 12 м/с и более поправка равна нулю.
P - Атмосферное давление - приведенное к уровню моря атмосферное давление.
Po - Атмосферное давление - измеренное на уровне метеостанции атмосферное давление.
Tmin - Минимальная температура - минимум температуры воздуха на высоте 2 м над землей.
Tmax - Максимальная температура - максимум температуры воздуха на высоте 2 м над землей.
R - Количество осадков - Количество выпавших осадков за период времени, мм. При наведении курсора мыши на число - период времени, за который выпало указанное количество осадков.
R24 - Количество осадков - Количество выпавших осадков за 24 часа, мм.
S - Снежный покров - Высота снежного покрова, см. При наведении курсора мыши на число - состояние снежного покрова и степень покрытия местности в баллах.